sat.trackr.live / text

‹ back to catalog

SJ-11-07

NORAD 40261 · 2014-059A

PAYLOAD ACTIVE UNKNOWN

§ Identity

Operator
Country
PRC
Launch date
2014-09-28
Launch site
JSC
Launch vehicle
Mass (kg)
RCS (m²)
2.26

External: N2YO · Heavens-Above · Gunter

§ Orbital elements

Epoch: 2026-05-25T04:46:21.870336Z

Period
98.38 min
Inclination
97.9942°
Eccentricity
0.0009747
Mean motion
14.63710886 rev/d
Perigee alt
674.3 km
Apogee alt
688.1 km
Semi-major
7,059.4 km
B*
5.8075e-5
RAAN
215.1756°
Arg perigee
216.6495°
Mean anomaly
143.4041°
Rev number
62,155

§ Raw data

SJ-11-071 40261U 14059A   26145.19886424  .00000256  00000+0  58075-4 0  99932 40261  97.9942 215.1756 0009747 216.6495 143.4041 14.63710886621552

JSON: /api/v1/satellites/40261 · /tle

For live sub-satellite position, see the globe view (requires WebGL).

§ Visibility from observer

Set your observer location to see the next 7 days of passes ≥ 10°. The values pass through the URL so the page stays shareable.

No JS? Fill the form by hand. The geolocation button needs JavaScript.